SAUDICOMSAT 5

Last updated on Sun Jun 21 2026 00:03:22 GMT+0000 (Coordinated Universal Time)

1 31124U 07012H 26171.42583889 .00000490 00000+0 92918-4 0 9990 2 31124 98.3490 146.3702 0048603 114.7548 245.8725 14.68159799 24075
UTC large
Height (km)
Speed (km/s)
/
Latitude / Longitude
Inclination (degrees)
Orbital Period (minutes)
Azimuth
Elevation
Range (km)
Doppler Factor

Next 0 passes for location: London (51.5072 / 0.1276)

No passes found over London.
SAUDICOMSAT 5